Location: Unspecified
(22.6800°N, 112.2000°E)
Time: 04:43:04
(UTC+08:00)

S-56A Canister/Altair - Pass Details

Date: 30 July 2021
Orbit: 632 x 2500 km, 38.9° (Epoch: 27 September)

Event Time Altitude Azimuth Distance (km) Brightness Sun altitude
Rises 16:14:46 0° 262° (W) 5,506 12.7 39.3°
Reaches altitude 10° 16:18:16 10° 267° (W) 4,701 12.8 38.5°
Maximum altitude 16:31:43 52° 340° (NNW) 2,923 11.2 35.4°
Drops below altitude 10° 16:46:11 10° 54° (NE) 5,004 11.4 32.1°
Sets 16:50:04 0° 60° (ENE) 5,871 11.6 31.2°
